Regional Weather Roundup
Issued by NWS

Home | Current Version | Previous Version | Graphics & Text | Print | Product List | Glossary On
Versions: 1 2 3 4 5 6 7 8 9 10 11 12 13 14 15 16 17 18 19 20 21 22 23 24 25 26 27 28 29 30 31 32 33 34 35 36 37 38 39 40 41 42 43 44 45 46 47 48 49 50
000
ASUS43 KDMX 260108
RWRIA

WEATHER ROUNDUP FOR IOWA
NATIONAL WEATHER SERVICE DES MOINES IA
800 PM CDT WED MAY 25 2016

NOTE: "FAIR" INDICATES FEW OR NO CLOUDS BELOW 12,000 FEET WITH NO
SIGNIFICANT WEATHER AND/OR OBSTRUCTIONS TO VISIBILITY.

* - THESE STATIONS ARE NOT NWS STATIONS...THUS NOT UNDER NWS
QUALITY CONTROL.  THEY ALSO DO NOT REPORT WEATHER SUCH
AS PRECIPITATION OR FOG.

IAZ001>003-012>014-020>022-031>034-043>046-260200-
   NORTHWEST IOWA

CITY           SKY/WX    TMP DP  RH WIND       PRES   REMARKS
CARROLL *      MOCLDY    75  66  73 S6        29.83F
CHEROKEE *     PTCLDY    75  63  64 S8        29.81R
DENISON *      MOCLDY    75  66  73 S7        29.81S
LE MARS *      PTCLDY    81  61  50 CALM      29.79S HX  81
ORANGE CITY *  CLEAR     79  63  57 SW5       29.79F HX  80
SHELDON *      CLEAR     79  61  53 S6        29.78S HX  80
SIOUX CITY     MOCLDY    77  63  61 S8        29.78S
SPENCER        MOCLDY    79  58  48 S8        29.80S HX  80
STORM LAKE *   CLEAR     77  59  53 SW8       29.83S
$$

IAZ055>058-069>071-079>083-090>094-260200-
   SOUTHWEST IOWA

CITY           SKY/WX    TMP DP  RH WIND       PRES   REMARKS
ATLANTIC *     CLOUDY    75  68  78 S5        29.84S
AUDUBON *      PTCLDY    73  66  78 SW3       29.86S
CLARINDA *       N/A     77  68  73 MISG      29.85F
COUNCIL BLFS * CLOUDY    73  68  83 S5        29.84R
CRESTON *      CLOUDY    73  66  78 S6        29.87F
HARLAN  *      CLOUDY    73  68  83 S7        29.87S
LAMONI         CLOUDY    75  66  73 S3        29.87S
RED OAK *      PTCLDY    75  68  78 SW7       29.84R
SHENANDOAH *   CLOUDY    77  70  78 S9        29.84S
$$

IAZ047>049-059>061-072>074-084-260200-
   CENTRAL IOWA

CITY           SKY/WX    TMP DP  RH WIND       PRES   REMARKS
AMES           PTCLDY    74  63  68 S6        29.85S
ANKENY *       CLOUDY    75  66  73 SE5       29.85S
BOONE *        MOCLDY    75  66  73 S8        29.84F
CHARITON *     CLOUDY    77  64  65 SW6       29.87R
DES MOINES     CLOUDY    78  63  59 SE5       29.85S HX  80
GRINNELL*      PTCLDY    77  63  61 CALM      29.87R
KNOXVILLE *    CLOUDY    79  63  57 CALM      29.85R HX  80
MARSHALLTOWN   CLOUDY    75  60  59 SW7       29.85R
NEWTON *       CLOUDY    79  64  61 CALM      29.86R HX  81
PELLA *        CLOUDY    77  63  61 CALM      29.87R
PERRY *        CLOUDY    75  70  83 SE3       29.84F
$$

IAZ004>006-015-016-023>025-035-036-260200-
   NORTH CENTRAL IOWA

CITY           SKY/WX    TMP DP  RH WIND       PRES   REMARKS
ALGONA *       CLEAR     79  57  47 W7        29.81F HX  80
CLARION *      MOCLDY    75  64  69 SW14      29.83S
ESTHERVILLE    CLEAR     78  58  49 SW8       29.81R
FORT DODGE *   MOCLDY    75  63  64 S9        29.84S
MASON CITY     CLEAR     75  66  73 S8        29.84R
FOREST CITY *  PTCLDY    75  63  64 S12       29.82R
WEBSTER CITY * MOCLDY    75  66  73 S12       29.82S
IOWA FALLS *     N/A     75  63  64 S10       29.86R
$$

IAZ007>011-017>019-026>030-037>042-050>054-066-260200-
   NORTHEAST IOWA

CITY           SKY/WX    TMP DP  RH WIND       PRES   REMARKS
CEDAR RAPIDS   CLEAR     78  61  55 SW8       29.85R HX  80
CHARLES CITY * CLEAR     77  61  57 SW8       29.84S
CLINTON *      PTCLDY    79  61  53 SW12      29.87R HX  80
DECORAH *      CLEAR     75  63  64 SW3       29.83S
DUBUQUE        PTCLDY    76  58  53 SW10      29.87R
MONTICELLO *   CLEAR     79  57  47 SW12G20   29.85R HX  80
OELWEIN *      PTCLDY    79  59  50 SW15      29.85R HX  80
WATERLOO       MOCLDY    78  58  49 SW12      29.84R
$$

IAZ064-065-067-068-078-260200-
   EAST CENTRAL IOWA

CITY           SKY/WX    TMP DP  RH WIND       PRES   REMARKS
DAVENPORT      PTCLDY    80  59  48 SW9       29.87R HX  81
IOWA CITY      CLEAR     80  58  46 S8        29.87R HX  80
MT. PLEASANT * CLEAR     82  64  54 SW5       29.88R HX  84
MUSCATINE *    CLEAR     81  61  50 SW7       29.86S HX  81
QUAD CITIES    PTCLDY    81  59  47 SW6       29.86R HX  81
$$

IAZ062-063-075>077-085>089-095>099-260200-
   SOUTHEAST IOWA

CITY           SKY/WX    TMP DP  RH WIND       PRES   REMARKS
BURLINGTON     CLEAR     80  62  54 SW5       29.87R HX  81
FAIRFIELD *      N/A    N/A N/A N/A MISG        N/A
FORT MADISON * CLEAR     79  63  57 S6        29.89R HX  80
KEOKUK *       CLEAR     79  64  61 S7        29.88R HX  81
OSKALOOSA *      N/A     77  63  61 S8        29.87R
OTTUMWA        MOCLDY    78  63  59 S5        29.86R HX  80
WASHINGTON *   CLEAR     79  70  73 SW7       29.88R HX  81
$$

ABBREVIATIONS USED IN REMARKS
   TC - TEMPERATURES IN CELSIUS
  WCI - WIND CHILL INDEX
   HX - HEAT INDEX
  VSB - VISIBILITY
$$





USA.gov is the U.S. government's official web portal to all federal, state and local government web resources and services.